This demonstration page uses our WeatherBlox Daily Observations layout. Learn more.

Left ArrowRight Arrow

41.12389, -100.76542

Hourly Observations for November 1, 2016

Temp ( °F °C ) Dew Point ( °F °C ) Humidity (%) Winds ( mph kmh ) Pressure ( in mb ) Visibility ( mi km ) Precip ( " mm )
12:53 am 00:53 Clear 44 6.7 34 1.1 68 68 Calm 29.83 1010 10 16 0.00 0.00
1:53 am 01:53 Clear 40 4.4 31 -0.6 70 70 NNW 5 7 29.84 1011 10 16 0.00 0.00
2:53 am 02:53 Clear 39 3.9 32 0 76 76 Calm 29.84 1010 10 16 0.00 0.00
3:53 am 03:53 Clear 37 2.8 30 -1.1 76 76 SW 3 6 29.85 1011 10 16 0.00 0.00
4:53 am 04:53 Clear 37 2.8 29 -1.7 73 73 Calm 29.86 1011 10 16 0.00 0.00
5:53 am 05:53 Clear 34 1.1 29 -1.7 82 82 NW 6 9 29.89 1012 10 16 0.00 0.00
6:53 am 06:53 Clear 35 1.7 28 -2.2 76 76 WNW 3 6 29.92 1013 10 16 0.00 0.00
7:53 am 07:53 Clear 33 0.6 28 -2.2 82 82 Calm 29.94 1014 10 16 0.00 0.00
8:53 am 08:53 Sunny 35 1.7 29 -1.7 78 78 WNW 3 6 29.97 1015 10 16 0.00 0.00
9:53 am 09:53 Mostly Cloudy 42 5.6 35 1.7 76 76 NNW 3 6 29.98 1015 10 16 0.00 0.00
10:53 am 10:53 Sunny 50 10 33 0.6 52 52 WNW 3 6 29.97 1015 10 16 0.00 0.00
11:53 am 11:53 Sunny 55 12.8 33 0.6 44 44 Calm 29.96 1015 10 16 0.00 0.00
12:53 pm 12:53 Sunny 58 14.4 33 0.6 39 39 Calm 29.96 1015 10 16 0.00 0.00
1:53 pm 13:53 Sunny 65 18.3 34 1.1 32 32 E 9 15 29.92 1013 10 16 0.00 0.00
2:53 pm 14:53 Sunny 68 20 34 1.1 28 28 ESE 13 20 29.91 1013 10 16 0.00 0.00
3:53 pm 15:53 Sunny 67 19.4 34 1.1 30 30 E 13 20 29.91 1013 10 16 0.00 0.00
4:53 pm 16:53 Mostly Cloudy 65 18.3 35 1.7 33 33 ESE 10 17 29.92 1013 10 16 0.00 0.00
5:53 pm 17:53 Partly Cloudy 62 16.7 36 2.2 38 38 E 8 13 29.93 1014 10 16 0.00 0.00
6:53 pm 18:53 Partly Cloudy 55 12.8 35 1.7 47 47 ENE 3 6 29.96 1015 10 16 0.00 0.00
7:53 pm 19:53 Cloudy 51 10.6 36 2.2 56 56 E 7 11 29.98 1015 10 16 0.00 0.00
8:53 pm 20:53 Mostly Cloudy 49 9.4 34 1.1 56 56 E 6 9 30.01 1016 10 16 0.00 0.00
9:53 pm 21:53 Mostly Cloudy 50 10 35 1.7 57 57 ESE 3 6 30.01 1016 10 16 0.00 0.00
10:53 pm 22:53 Mostly Clear 50 10 34 1.1 54 54 ENE 3 6 30.01 1016 10 16 0.00 0.00
11:53 pm 23:53 Clear 46 7.8 34 1.1 63 63 Calm 30.01 1016 10 16 0.00 0.00

Powered by AerisWeather